Regional Weather Roundup
Issued by NWS

Home | Current Version | Previous Version | Graphics & Text | Print | Product List | Glossary On
Versions: 1 2 3 4 5 6 7 8 9 10 11 12 13 14 15 16 17 18 19 20 21 22 23 24 25 26 27 28 29 30 31 32 33 34 35 36 37 38 39 40 41 42 43 44 45 46 47 48 49 50
000
ASUS45 KSLC 060110
RWRUT

UTAH REGIONAL WEATHER ROUNDUP
NATIONAL WEATHER SERVICE SALT LAKE CITY UT
600 PM MST FRI FEB 05 2016

UTZ001>011-023>025-060200-

NORTHERN UTAH

CITY           SKY/WX    TMP DP  RH WIND       PRES   REMARKS
BRIGHAM CITY   CLOUDY    32  27  80 CALM      30.55F
HILL AFB       MOCLDY    32  22  67 N2        30.52S
LOGAN          CLOUDY    29  26  89 NE3       30.53S FOG
OGDEN          CLOUDY    32  27  81 CALM      30.52S
PROVO AIRPORT  PTCLDY    25  18  74 CALM      30.54F
SALT LAKE CITY MOCLDY    33  26  75 S3        30.53R
VERNAL         CLOUDY    15   9  76 SE3       30.49S
WENDOVER       CLEAR     34  25  69 CALM      30.52S
HEBER CITY     CLOUDY    23  19  86 CALM      30.48S
WEST JORDAN    PTCLDY    30  23  74 S5        30.53S WCI  25

$$

UTZ012>022-026-027-060200-

SOUTHERN/CENTRAL UTAH

CITY           SKY/WX    TMP DP  RH WIND       PRES   REMARKS
BLANDING       PTCLDY    28  17  63 CALM      30.53R
BRYCE CANYON   PTCLDY    17   9  70 N3        30.45R
CEDAR CITY     PTCLDY    28  20  71 CALM      30.47R
DELTA          PTCLDY    21  19  91 CALM      30.54R
HANKSVILLE     CLOUDY    21  18  86 NE3       30.60R
MILFORD        MOCLDY    15  12  88 N8        30.51S WCI   4
MOAB/CYNLANDS  CLOUDY    19  14  81 NW3       30.55R
PRICE          PTCLDY    15  10  80 E3        30.47R
ST GEORGE      PTCLDY    50  23  34 NE10      30.48R
KANAB          PTCLDY    37  21  52 CALM      30.49R

$$

REGIONAL REPORTS     COLORADO/ARIZONA

CITY           SKY/WX    TMP DP  RH WIND       PRES   REMARKS
CRAIG, CO      CLOUDY     7   3  84 CALM      30.46S
GRAND JUNCTION CLOUDY    13  10  88 CALM      30.53R
RIFLE          CLOUDY    17   9  70 S6        30.50R WCI   9
MONTROSE       CLOUDY    18  12  77 E3        30.52R
CORTEZ         CLEAR     29  11  47 NW8       30.42R WCI  21
PAGE, AZ       CLEAR     37  21  52 NE3       30.48S
GRAND CANYON   PTCLDY    33  13  43 E7        30.45R WCI  27
KINGMAN        PTCLDY    49  22  34 N16       30.40R
FLAGSTAFF      PTCLDY    29  12  49 VRB6      30.42R WCI  23

$$

REGIONAL REPORTS    NEVADA/IDAHO/WYOMING

CITY           SKY/WX    TMP DP  RH WIND       PRES   REMARKS
LAS VEGAS, NV  PTCLDY    57  22  25 NE10      30.39S
ELY            MOCLDY    17  12  80 S8        30.47S WCI   7
ELKO           MOCLDY    23  17  78 SW3       30.51R
POCATELLO, ID  CLOUDY    24  21  88 N6        30.51S WCI  17
BURLEY         PTCLDY    28  23  81 NE7       30.48S WCI  21
EVANSTON, WY   CLOUDY    24  18  77 W12       30.44S WCI  13
ROCK SPRINGS   CLOUDY    23  17  78 W24G33    30.36R WCI   7

$$



USA.gov is the U.S. government's official web portal to all federal, state and local government web resources and services.